Wind_Speed
43 36 42 55 57 49 43 39 40 38 39 34 31 27 28 29 31 36 33 30 23 18 23 25 25 22 22 21 21 21 22 24 24 24 26 30 31 31 34 36 40 40 42 43
43 36 45 57 57 55 41 40 38 38 38 31 28 36 36 34 35 33 31 32 20 21 25 16 24 23 23 25 27 29 28 27 28 29 30 30 32 34 36 38 40 42 43 45
45 36 46 59 55 56 48 47 37 39 33 29 33 29 29 35 35 32 28 30 27 18 21 17 17 22 23 26 28 28 31 33 34 35 36 37 37 37 40 41 42 44 45 47
41 40 51 53 54 52 49 42 42 34 34 37 38 38 37 35 37 38 33 28 28 24 24 25 27 26 27 28 30 31 33 33 33 35 38 39 39 40 42 43 44 46 47 48
47 42 42 54 58 45 46 48 41 37 33 32 34 37 36 34 35 37 33 29 28 25 26 27 32 33 33 34 34 35 36 36 36 37 38 39 41 42 44 46 47 47 47 47
31 38 40 42 56 55 51 42 40 38 35 37 36 34 31 34 34 33 32 32 29 29 30 29 30 32 33 34 36 38 39 40 40 39 39 41 43 45 47 47 47 48 47 49
37 33 39 38 45 49 57 54 47 46 41 39 37 36 36 40 40 37 32 32 31 31 31 30 31 32 32 34 36 38 39 39 40 41 44 45 45 46 47 48 48 48 50 52
39 39 42 36 36 46 48 51 51 52 52 45 42 42 42 40 40 40 38 36 34 36 37 36 37 37 37 35 36 39 39 41 42 44 45 45 47 47 48 48 49 51 52 54
40 38 35 34 35 41 36 50 48 51 51 53 43 46 44 43 45 47 46 44 43 42 41 41 41 41 41 41 41 39 39 43 44 44 44 45 47 49 51 53 52 54 57 59
25 26 33 38 37 38 43 35 38 42 46 50 55 56 51 47 50 48 45 44 44 45 46 44 41 40 40 39 40 41 39 38 40 43 45 46 48 51 53 55 58 61 62 63
24 22 24 33 40 41 40 36 36 36 35 40 44 47 48 50 46 43 41 40 38 35 36 38 41 44 44 43 42 41 40 42 44 46 47 48 50 52 55 57 58 60 63 67
32 30 27 29 33 42 43 40 42 37 37 35 44 42 40 37 37 37 37 37 37 40 43 46 50 53 53 48 44 45 46 48 48 48 48 51 53 56 58 62 65 68 71 73
36 35 34 33 32 27 33 28 31 37 31 33 30 43 34 38 35 37 40 43 44 49 53 54 44 41 44 44 42 42 42 46 48 48 52 56 61 63 66 69 71 71 70 71
39 39 39 34 33 30 31 31 37 40 38 36 34 39 39 46 44 43 45 47 49 49 44 43 43 43 44 44 45 47 49 55 53 55 59 63 65 67 67 66 66 67 69 70
38 37 38 29 32 36 33 33 32 30 30 30 32 36 41 44 45 47 49 48 43 41 40 42 44 47 48 48 49 50 52 53 56 60 65 64 61 61 62 65 67 68 70 73
42 37 36 28 26 22 24 29 32 35 38 39 40 41 41 40 41 40 37 35 37 40 44 46 46 43 44 47 50 52 54 58 57 56 58 61 63 64 65 68 70 73 76 79
32 38 34 28 27 25 27 27 29 31 33 34 34 35 36 37 38 36 36 38 40 43 46 45 47 47 50 53 55 57 58 55 58 59 61 63 64 67 70 73 75 79 82 86
29 29 29 28 29 33 32 30 31 33 33 34 34 33 33 33 34 36 40 42 41 41 42 44 48 49 52 54 56 57 62 63 62 61 63 66 69 72 75 79 82 86 90 93
30 30 31 31 34 37 38 37 38 38 37 36 34 33 34 36 39 41 41 43 45 46 45 45 49 52 55 57 60 61 59 61 63 66 69 72 75 79 83 87 91 94 96 97
28 32 32 33 35 37 36 36 37 37 37 37 37 36 38 39 40 40 42 42 41 44 49 53 53 54 55 55 58 60 62 65 69 72 76 79 83 86 90 92 94 97 98 99
30 31 31 31 29 31 32 33 35 37 36 37 39 40 40 40 40 40 41 44 48 51 51 51 51 53 55 58 61 64 68 71 75 78 81 84 87 91 94 97 98 98 96 94
32 32 28 27 30 31 32 32 33 34 35 37 36 33 33 36 38 42 45 45 48 47 48 51 53 56 60 63 67 71 74 77 79 83 86 89 92 94 95 93 92 91 90 90
27 30 31 31 30 26 26 31 32 34 33 33 32 34 37 38 41 41 43 45 46 48 51 55 59 63 66 69 72 75 78 82 85 88 90 90 89 88 87 86 88 90 90 90
33 34 32 25 24 31 30 30 32 33 33 31 34 37 39 39 40 41 44 47 50 54 58 62 65 68 71 74 76 79 83 85 86 86 85 83 82 83 85 87 87 87 86 86
31 27 27 30 36 38 34 31 32 32 35 37 38 38 38 40 43 45 48 53 57 61 64 67 69 71 73 76 79 82 82 81 79 77 76 78 81 83 83 83 82 82 77 68
30 31 30 30 29 27 29 32 35 37 38 38 38 40 43 46 49 52 55 59 63 66 67 68 71 73 77 79 79 76 73 71 72 74 76 78 79 79 78 78 73 64 56 49
26 26 27 29 31 33 34 36 37 37 37 39 42 46 49 53 55 58 61 63 65 66 68 71 73 75 74 71 69 67 68 70 72 74 75 75 73 73 71 63 54 47 41 35
Wind_Direction
225 227 233 229 228 215 222 232 236 233 243 240 237 235 240 256 265 271 278 281 274 265 271 284 259 262 272 272 265 269 278 282 284 287 291 292 292 293 292 295 295 297 295 294
223 222 221 221 224 213 224 235 241 239 237 239 243 237 238 247 251 257 267 277 286 287 284 271 254 253 256 265 277 283 285 280 282 284 282 284 288 291 292 292 290 289 290 289
221 224 219 216 222 215 215 224 232 236 235 219 237 240 246 247 255 258 260 271 278 270 278 275 249 251 261 271 274 280 287 290 292 293 294 293 292 292 292 292 293 293 294 295
227 222 223 226 213 218 218 226 230 226 228 230 233 238 240 248 256 261 262 268 276 284 280 278 277 273 273 276 278 277 276 277 281 285 287 289 291 292 292 291 291 291 292 294
234 220 218 222 221 217 215 219 218 221 228 237 239 242 253 260 260 259 260 269 280 280 282 279 276 278 279 279 279 279 279 281 281 283 287 289 290 289 287 287 288 289 289 289
224 226 225 221 224 225 227 228 215 228 239 240 240 248 256 259 265 263 261 266 280 274 274 279 282 284 285 285 284 286 287 284 283 284 285 285 285 284 285 287 286 286 288 289
232 230 225 232 217 227 230 231 233 232 238 237 242 245 256 267 267 265 260 269 269 271 274 279 283 284 284 283 283 284 284 283 283 282 283 283 282 283 285 285 286 286 286 287
229 233 231 237 234 231 236 234 232 234 234 232 240 251 257 263 261 265 267 266 267 269 272 278 284 288 286 283 284 284 284 283 283 283 281 281 283 284 285 283 284 286 288 290
225 233 233 239 231 242 245 240 238 235 237 236 246 251 251 255 258 262 266 270 274 278 280 284 286 286 281 282 285 283 283 282 281 279 279 283 283 282 282 284 286 288 288 291
215 232 237 229 225 236 243 249 243 241 234 237 241 247 255 257 263 263 269 272 279 283 283 283 282 283 282 281 284 283 285 283 279 277 281 282 282 284 285 287 286 286 289 291
227 232 239 232 234 241 245 233 237 245 246 248 250 252 253 258 264 269 271 274 278 282 291 288 283 283 284 284 281 282 280 279 279 280 283 285 288 290 293 295 294 292 291 292
260 266 262 242 242 238 241 243 246 245 248 247 255 254 252 257 262 268 273 274 281 284 287 287 287 286 283 280 280 283 281 283 283 283 285 288 290 291 290 290 291 292 292 292
251 257 262 260 238 239 233 242 247 249 249 261 259 241 256 259 260 273 280 284 280 275 277 282 281 281 280 281 283 283 282 280 278 283 286 287 289 291 293 291 290 291 292 292
236 246 255 256 249 239 228 237 239 246 247 251 253 241 253 258 257 266 269 272 275 278 276 276 281 283 285 286 277 282 275 278 280 285 287 288 287 286 287 289 291 291 292 292
224 232 250 256 255 238 234 240 245 249 254 254 257 262 262 261 266 269 272 275 275 277 279 279 280 280 284 286 286 286 286 282 281 285 288 290 288 289 289 290 291 292 293 293
223 232 247 257 260 243 246 251 260 262 262 266 269 269 266 265 266 271 273 279 279 276 278 279 282 284 289 292 294 293 291 291 290 288 289 291 291 291 291 293 293 293 294 294
226 229 242 249 254 255 249 248 253 254 257 259 263 265 265 266 270 275 275 277 281 285 286 286 286 289 290 289 288 288 289 287 290 293 292 291 291 293 294 294 296 298 298 298
221 229 233 235 242 247 248 250 254 256 258 262 268 270 270 270 271 274 276 279 283 290 292 292 289 288 288 288 288 286 288 291 294 294 294 294 296 297 298 298 299 299 298 298
215 224 229 233 236 243 248 253 256 258 263 268 270 271 271 272 274 277 279 282 284 288 289 287 287 287 286 286 289 293 294 294 295 296 296 297 297 298 299 299 299 299 299 299
223 227 234 237 239 244 249 254 259 263 266 269 271 272 272 273 277 279 281 286 288 284 284 288 288 288 290 291 293 294 294 295 296 296 297 298 299 300 301 301 301 301 301 300
227 226 224 230 239 249 254 257 260 264 266 269 272 273 274 275 277 279 279 282 287 291 290 289 290 291 293 293 294 295 296 297 299 300 301 302 302 303 304 304 303 302 301 300
221 221 225 241 249 255 262 266 267 269 271 272 274 274 273 275 275 277 283 288 290 289 290 291 292 294 295 296 298 299 300 302 303 304 305 305 306 305 305 303 303 303 303 302
226 239 243 251 257 261 262 262 260 265 268 269 268 262 264 273 279 283 287 289 290 292 293 295 296 298 299 300 302 303 304 305 306 307 307 307 306 305 305 305 305 305 304 303
244 248 253 252 257 252 254 257 260 262 262 259 266 273 278 279 283 289 292 294 295 296 298 299 300 301 302 304 305 306 308 309 309 308 308 308 308 308 308 308 308 307 306 305
248 247 248 247 249 245 246 252 255 251 260 268 272 273 278 287 291 294 295 296 298 299 300 301 302 303 305 308 309 310 310 310 310 310 310 311 311 311 311 311 311 310 310 310
238 237 240 242 237 240 245 250 256 263 268 271 276 283 289 291 292 294 295 297 298 299 301 304 306 309 310 311 311 311 311 311 312 313 314 314 315 315 315 315 315 316 317 318
230 234 239 246 252 257 260 263 267 270 275 281 285 288 290 291 293 295 297 299 301 304 306 308 310 312 313 313 313 313 313 315 316 316 317 317 318 319 320 320 321 323 325 327
Height
5646 5655 5659 5661 5665 5671 5676 5681 5683 5693 5692 5696 5700 5700 5702 5701 5702 5701 5701 5702 5705 5706 5704 5704 5703 5702 5701 5701 5702 5702 5702 5702 5702 5701 5699 5697 5695 5693 5692 5687 5684 5681 5678 5675
5635 5644 5646 5648 5652 5659 5670 5675 5677 5681 5682 5689 5692 5693 5694 5695 5696 5697 5697 5695 5699 5698 5698 5700 5698 5698 5697 5696 5695 5694 5694 5695 5695 5694 5694 5691 5687 5683 5681 5678 5676 5673 5670 5666
5625 5634 5637 5638 5646 5650 5658 5663 5669 5670 5677 5684 5683 5686 5688 5689 5689 5690 5692 5692 5693 5694 5693 5694 5694 5693 5692 5691 5690 5688 5686 5683 5682 5680 5679 5678 5676 5673 5670 5668 5664 5661 5658 5654
5614 5621 5622 5633 5642 5646 5651 5657 5661 5663 5667 5671 5674 5677 5679 5681 5683 5683 5685 5685 5685 5685 5684 5683 5683 5685 5685 5685 5684 5682 5680 5678 5676 5674 5672 5669 5666 5663 5661 5657 5654 5650 5647 5643
5603 5611 5616 5625 5633 5638 5641 5645 5653 5656 5660 5664 5667 5670 5672 5674 5676 5677 5677 5678 5677 5677 5676 5675 5674 5673 5673 5672 5671 5670 5668 5666 5664 5662 5660 5658 5655 5652 5649 5646 5642 5639 5634 5630
5598 5604 5610 5620 5627 5632 5633 5637 5645 5652 5655 5658 5660 5661 5665 5667 5668 5669 5671 5671 5672 5672 5670 5669 5667 5665 5664 5663 5662 5660 5658 5655 5653 5652 5649 5646 5643 5640 5638 5634 5630 5625 5621 5617
5589 5597 5601 5608 5616 5623 5624 5633 5640 5642 5647 5650 5652 5653 5656 5657 5659 5660 5663 5664 5663 5662 5661 5660 5659 5658 5656 5654 5653 5650 5648 5645 5643 5641 5639 5635 5632 5628 5625 5621 5617 5613 5609 5605
5584 5589 5594 5601 5609 5614 5618 5623 5630 5633 5636 5639 5640 5644 5648 5651 5651 5652 5653 5653 5653 5653 5653 5652 5650 5649 5647 5645 5642 5639 5636 5634 5631 5629 5625 5622 5619 5616 5612 5608 5603 5600 5595 5590
5580 5584 5588 5595 5602 5605 5607 5611 5619 5624 5626 5631 5633 5636 5639 5641 5642 5642 5643 5643 5643 5643 5643 5642 5641 5639 5635 5633 5630 5627 5624 5621 5618 5615 5612 5609 5605 5601 5597 5593 5590 5585 5581 5575
5570 5578 5581 5588 5592 5598 5601 5603 5607 5613 5616 5622 5625 5626 5628 5630 5631 5631 5632 5632 5632 5632 5632 5630 5628 5627 5624 5621 5617 5614 5610 5607 5604 5601 5598 5594 5591 5586 5582 5577 5572 5567 5563 5557
5565 5570 5572 5579 5585 5590 5593 5597 5600 5604 5609 5613 5615 5616 5617 5619 5619 5621 5621 5622 5622 5622 5620 5618 5615 5612 5610 5607 5604 5601 5598 5595 5591 5588 5583 5579 5576 5571 5567 5561 5555 5548 5542 5536
5560 5564 5566 5572 5575 5578 5583 5588 5592 5595 5599 5602 5603 5606 5607 5608 5609 5610 5611 5610 5611 5609 5607 5605 5602 5599 5596 5593 5590 5588 5584 5580 5577 5573 5569 5564 5560 5555 5550 5543 5536 5529 5522 5516
5553 5557 5559 5565 5568 5571 5574 5579 5581 5585 5588 5590 5592 5595 5597 5598 5599 5600 5600 5598 5598 5596 5593 5591 5587 5584 5582 5580 5578 5575 5571 5567 5563 5557 5553 5548 5543 5537 5531 5525 5518 5511 5504 5497
5544 5549 5554 5560 5562 5564 5566 5570 5574 5577 5579 5581 5584 5586 5587 5588 5589 5588 5587 5585 5584 5582 5579 5576 5575 5572 5569 5566 5563 5557 5554 5551 5547 5542 5537 5531 5525 5519 5512 5506 5500 5493 5485 5478
5537 5544 5546 5552 5553 5556 5559 5562 5563 5566 5568 5570 5573 5575 5576 5576 5576 5575 5574 5572 5571 5568 5567 5564 5561 5558 5555 5552 5548 5544 5540 5535 5531 5526 5520 5514 5508 5502 5495 5489 5482 5475 5467 5458
5530 5536 5540 5545 5547 5549 5551 5553 5555 5557 5559 5561 5562 5562 5562 5562 5562 5562 5561 5560 5559 5556 5553 5550 5548 5544 5541 5537 5533 5529 5525 5520 5515 5509 5503 5497 5490 5484 5477 5470 5463 5455 5446 5437
5523 5529 5534 5540 5540 5542 5544 5544 5546 5548 5549 5550 5551 5552 5553 5552 5552 5551 5551 5549 5546 5543 5540 5537 5534 5530 5527 5523 5519 5515 5510 5504 5499 5493 5486 5479 5473 5466 5458 5450 5441 5432 5423 5412
5517 5521 5526 5529 5532 5533 5535 5537 5539 5540 5541 5542 5542 5543 5543 5543 5542 5541 5539 5537 5534 5531 5528 5524 5521 5517 5513 5509 5504 5500 5495 5489 5482 5476 5469 5462 5454 5446 5437 5428 5418 5408 5397 5386
5508 5513 5517 5521 5524 5526 5528 5530 5532 5533 5533 5533 5534 5534 5534 5533 5531 5529 5527 5525 5522 5519 5516 5513 5509 5505 5500 5495 5490 5484 5478 5472 5466 5459 5451 5442 5433 5424 5414 5404 5393 5381 5369 5356
5503 5506 5510 5513 5516 5519 5522 5523 5524 5524 5524 5524 5523 5523 5522 5521 5519 5518 5515 5513 5510 5508 5504 5500 5496 5491 5486 5480 5474 5468 5461 5454 5447 5439 5430 5421 5411 5400 5389 5376 5364 5351 5337 5323
5496 5498 5501 5505 5508 5510 5512 5513 5514 5514 5514 5513 5512 5511 5510 5509 5507 5505 5503 5501 5497 5493 5489 5485 5481 5476 5470 5464 5458 5451 5443 5435 5426 5418 5407 5396 5385 5372 5360 5347 5333 5319 5306 5292
5488 5491 5494 5498 5500 5502 5503 5503 5503 5503 5502 5502 5501 5499 5498 5497 5495 5493 5490 5487 5483 5479 5475 5470 5465 5460 5454 5447 5439 5432 5423 5414 5403 5392 5381 5369 5356 5343 5329 5315 5302 5289 5277 5264
5482 5485 5487 5489 5491 5492 5494 5494 5494 5493 5492 5491 5491 5490 5488 5486 5484 5481 5478 5474 5470 5466 5460 5455 5449 5442 5435 5427 5419 5410 5400 5390 5379 5366 5354 5341 5328 5315 5302 5288 5275 5262 5248 5235
5476 5478 5479 5481 5483 5484 5484 5485 5485 5484 5483 5482 5482 5480 5477 5474 5472 5469 5465 5460 5456 5450 5444 5438 5431 5424 5416 5406 5397 5387 5376 5365 5353 5341 5328 5314 5301 5288 5276 5262 5248 5234 5219 5205
5469 5470 5472 5474 5474 5474 5474 5474 5475 5474 5473 5472 5470 5468 5465 5462 5459 5455 5451 5446 5440 5434 5428 5420 5412 5404 5394 5385 5374 5364 5352 5340 5328 5316 5304 5292 5279 5265 5251 5237 5223 5208 5194 5180
5462 5463 5464 5465 5465 5465 5465 5465 5465 5464 5462 5460 5458 5455 5452 5448 5445 5440 5436 5430 5424 5417 5409 5401 5393 5383 5374 5363 5352 5340 5329 5318 5307 5295 5283 5270 5257 5243 5229 5214 5200 5187 5176 5166
5454 5455 5456 5456 5456 5456 5456 5455 5454 5452 5451 5449 5446 5442 5439 5434 5430 5424 5419 5412 5406 5398 5391 5382 5373 5363 5352 5341 5331 5321 5311 5300 5288 5277 5264 5252 5239 5225 5211 5197 5185 5175 5166 5158